DELTA 1 DEB, 4499

Orbit data source: Space-Track

DELTA 1 DEB, 4499 is space debris in SSO originally from a launch on Fri, 16 Aug 1968 UTC launched from the Air Force Western Test Range (AFWTR). Debris objects in space refer to the collection of defunct objects orbiting the Earth. Examples of debris include non-operational satellites, rocket bodies, and fragments generated from explosions, collisions, or faulty payload assembly.

Loading next visibility...
Identifier
4499, 1968-069G
Orbit
SSO
Country
Flag of USUS
Related business
Manufacturer
Unknown
Mission
Spacecraft
Bus & Motor
Unknown
Mass
Unknown
Launch date (UTC)
1968-08-16 (57 years ago)
Launch vehicle
Unknown
Launch site
Air Force Western Test Range (AFWTR)
Object type
Payload
Rocket body
Debris
Shape & HBR
Unknown shape, 0.1 m
Radar Cross Section
Small (<0.1 m²)

Expand to show TLE details & history
Last TLE update: 1 day ago

TLE from 1 day ago
0 DELTA 1 DEB
1 04499U 68069G   25303.29128969 -.00000023  00000-0  12716-3 0  9990
2 04499 101.3640 320.2157 0028637  85.5610 302.3972 12.51292095614502
Epoch: 2025-10-30T06:59Z
TLE epoch observation values (Epoch: 2025-10-30T06:59:27.429Z)
Latitude
27.1305°
Longitude
170.61747°
Altitude
1,450.151 km
Speed
7.145 km/s
True Right ascension
20h 57m 20s
True Declination
27° 00' 13"
Sunlit
Object was in daylight at epoch
Visualization orbit readout
Latitude
Unknown
Longitude
Unknown
Altitude
Unknown
Speed
Unknown
Apparent Right ascension
Unknown
Apparent Declination
Unknown
Sunlit
N/A
Visualization observer readout
Local Sidereal Time
04:56:51
Azimuth
Unknown
Elevation
Unknown
Doppler factor
Unknown
Orbital elements
Apogee altitude
1,479.054 km
Perigee altitude
1,434.182 km
Semi-major axis
7,834.755 km
Eccentricity
0.00286
Inclination
101.364°
RAAN
320.2157°
Arg. of periapsis
85.561°
True anomaly
302.11959°
Mean anomaly
302.3972°
Eccentric anomaly
302.25845°
Mean motion
3.12972 °/min
Orbital period
115.03 mins
BSTAR
0.00012716
Loading maneuver chart data...
Computing Atmospheric mass density...
Loading historical data...
Loading historical data...
Loading historical data...
Loading historical data...
Loading historical data...
Loading historical data...
Loading historical data...

Documentation

Showing up to 5 results
|